Time,TemperatureF,DewpointF,PressureIn,WindDirection,WindDirectionDegrees,WindSpeedMPH,WindSpeedGustMPH,Humidity,HourlyPrecipIn,Conditions,Clouds,dailyrainin,SoftwareType,DateUTC
2013-02-28 04:10:00,32.7,30.4,29.50,ENE,59,4.0,4.9,91,0.00,,,-99.99,FreeWX 2.04,2013-02-28 09:10:00,
2013-02-28 04:16:00,32.5,30.2,29.50,NE,46,1.0,4.9,91,0.00,,,-99.99,FreeWX 2.04,2013-02-28 09:16:00,
2013-02-28 06:52:00,32.0,29.5,29.56,ENE,68,1.0,4.9,90,0.00,,,-99.99,FreeWX 2.04,2013-02-28 11:52:00,
2013-02-28 06:57:00,32.0,29.5,29.56,NNE,29,2.0,6.7,90,0.00,,,-99.99,FreeWX 2.04,2013-02-28 11:57:00,
2013-02-28 07:02:00,32.0,29.5,29.56,NNE,27,2.0,7.8,90,0.00,,,-99.99,FreeWX 2.04,2013-02-28 12:02:00,
2013-02-28 07:07:00,32.0,29.5,29.59,NNE,23,2.0,7.8,90,0.00,,,-99.99,FreeWX 2.04,2013-02-28 12:07:00,
2013-02-28 07:12:00,32.0,29.5,29.59,NE,36,2.0,10.5,90,0.00,,,-99.99,FreeWX 2.04,2013-02-28 12:12:00,
2013-02-28 07:17:00,32.0,29.7,29.59,NE,39,2.0,6.3,91,0.00,,,-99.99,FreeWX 2.04,2013-02-28 12:17:00,
2013-02-28 07:22:00,32.0,29.7,29.59,NE,35,2.0,11.0,91,0.00,,,-99.99,FreeWX 2.04,2013-02-28 12:22:00,
2013-02-28 07:27:00,32.0,29.7,29.59,NE,40,2.0,6.3,91,0.00,,,-99.99,FreeWX 2.04,2013-02-28 12:27:00,
2013-02-28 07:32:00,32.0,29.7,29.59,NNE,24,1.0,6.3,91,0.00,,,-99.99,FreeWX 2.04,2013-02-28 12:32:00,
2013-02-28 07:37:00,32.0,29.7,29.59,North,4,1.0,5.8,91,0.00,,,-99.99,FreeWX 2.04,2013-02-28 12:37:00,
2013-02-28 07:42:00,32.0,29.7,29.59,NNE,16,1.0,5.8,91,0.00,,,-99.99,FreeWX 2.04,2013-02-28 12:42:00,
2013-02-28 07:47:00,32.0,29.7,29.59,NNE,24,1.0,4.9,91,0.00,,,-99.99,FreeWX 2.04,2013-02-28 12:47:00,
2013-02-28 07:52:00,32.0,29.7,29.59,NNE,15,2.0,6.9,91,0.00,,,-99.99,FreeWX 2.04,2013-02-28 12:52:00,
2013-02-28 07:57:00,32.0,29.7,29.59,NNE,32,1.0,6.7,91,0.00,,,-99.99,FreeWX 2.04,2013-02-28 12:57:00,
2013-02-28 08:02:00,32.0,29.7,29.59,NE,39,1.0,5.4,91,0.00,,,-99.99,FreeWX 2.04,2013-02-28 13:02:00,
2013-02-28 08:07:00,32.0,29.7,29.62,North,-999,0.0,4.9,91,0.00,,,-99.99,FreeWX 2.04,2013-02-28 13:07:00,
2013-02-28 08:12:00,32.0,29.7,29.62,NNE,24,1.0,7.8,91,0.00,,,-99.99,FreeWX 2.04,2013-02-28 13:12:00,
2013-02-28 08:17:00,32.0,29.7,29.62,NNE,23,2.0,6.7,91,0.00,,,-99.99,FreeWX 2.04,2013-02-28 13:17:00,
2013-02-28 08:22:00,31.8,29.5,29.62,NE,36,1.0,5.4,91,0.00,,,-99.99,FreeWX 2.04,2013-02-28 13:22:00,
2013-02-28 08:27:00,31.8,29.5,29.62,NE,38,1.0,4.9,91,0.00,,,-99.99,FreeWX 2.04,2013-02-28 13:27:00,
2013-02-28 08:32:00,31.8,29.5,29.62,NNE,24,1.0,5.8,91,0.00,,,-99.99,FreeWX 2.04,2013-02-28 13:32:00,
2013-02-28 08:37:00,31.8,29.5,29.62,NNE,27,1.0,4.9,91,0.00,,,-99.99,FreeWX 2.04,2013-02-28 13:37:00,
2013-02-28 08:42:00,31.8,29.8,29.62,NE,46,1.0,6.3,92,0.00,,,-99.99,FreeWX 2.04,2013-02-28 13:42:00,
2013-02-28 08:47:00,31.8,29.8,29.62,NE,48,1.0,5.4,92,0.00,,,-99.99,FreeWX 2.04,2013-02-28 13:47:00,
2013-02-28 08:52:00,31.8,29.8,29.62,NE,45,1.0,7.4,92,0.00,,,-99.99,FreeWX 2.04,2013-02-28 13:52:00,
2013-02-28 08:57:00,31.8,29.8,29.62,NE,51,1.0,6.7,92,0.00,,,-99.99,FreeWX 2.04,2013-02-28 13:57:00,
2013-02-28 09:02:00,32.0,30.0,29.62,NE,42,1.0,8.7,92,0.00,,,-99.99,FreeWX 2.04,2013-02-28 14:02:00,
2013-02-28 09:07:00,32.0,30.0,29.62,NNE,17,1.0,5.4,92,0.00,,,-99.99,FreeWX 2.04,2013-02-28 14:07:00,
2013-02-28 09:12:00,32.0,30.0,29.62,North,-999,0.0,4.9,92,0.00,,,-99.99,FreeWX 2.04,2013-02-28 14:12:00,
2013-02-28 09:17:00,32.0,30.0,29.62,North,-999,0.0,5.4,92,0.00,,,-99.99,FreeWX 2.04,2013-02-28 14:17:00,
2013-02-28 09:22:00,32.2,30.2,29.65,ENE,57,1.0,7.8,92,0.00,,,-99.99,FreeWX 2.04,2013-02-28 14:22:00,
2013-02-28 09:27:00,32.4,30.4,29.65,North,-999,0.0,4.9,92,0.00,,,-99.99,FreeWX 2.04,2013-02-28 14:27:00,
2013-02-28 09:32:00,32.4,30.4,29.65,NE,40,1.0,6.7,92,0.00,,,-99.99,FreeWX 2.04,2013-02-28 14:32:00,
2013-02-28 09:37:00,32.4,30.4,29.65,NNE,27,1.0,8.3,92,0.00,,,-99.99,FreeWX 2.04,2013-02-28 14:37:00,
2013-02-28 09:42:00,32.4,30.4,29.65,North,-999,0.0,4.9,92,0.00,,,-99.99,FreeWX 2.04,2013-02-28 14:42:00,
2013-02-28 09:47:00,32.2,30.2,29.65,North,-999,0.0,6.9,92,0.00,,,-99.99,FreeWX 2.04,2013-02-28 14:47:00,
2013-02-28 09:52:00,32.4,30.4,29.65,NNE,33,1.0,9.6,92,0.00,,,-99.99,FreeWX 2.04,2013-02-28 14:52:00,
2013-02-28 09:57:00,32.5,30.6,29.65,NNE,33,2.0,10.1,92,0.00,,,-99.99,FreeWX 2.04,2013-02-28 14:57:00,
2013-02-28 10:02:00,32.9,30.9,29.65,NNE,24,3.0,8.3,92,0.00,,,-99.99,FreeWX 2.04,2013-02-28 15:02:00,
2013-02-28 10:07:00,32.7,30.7,29.65,NE,36,3.0,7.8,92,0.00,,,-99.99,FreeWX 2.04,2013-02-28 15:07:00,
2013-02-28 10:12:00,32.5,30.6,29.65,NE,35,3.0,9.6,92,0.00,,,-99.99,FreeWX 2.04,2013-02-28 15:12:00,
2013-02-28 10:17:00,32.7,30.7,29.65,NE,35,3.0,9.6,92,0.00,,,-99.99,FreeWX 2.04,2013-02-28 15:17:00,
2013-02-28 10:22:00,32.5,30.6,29.65,NNE,25,2.0,4.9,92,0.00,,,-99.99,FreeWX 2.04,2013-02-28 15:22:00,
2013-02-28 10:27:00,32.4,30.4,29.65,NNE,28,2.0,6.9,92,0.00,,,-99.99,FreeWX 2.04,2013-02-28 15:27:00,
2013-02-28 10:32:00,32.2,30.2,29.65,NE,46,2.0,12.1,92,0.00,,,-99.99,FreeWX 2.04,2013-02-28 15:32:00,
2013-02-28 10:37:00,32.2,29.8,29.65,NE,35,1.0,6.7,91,0.00,,,-99.99,FreeWX 2.04,2013-02-28 15:37:00,
2013-02-28 10:42:00,32.4,30.0,29.65,North,9,1.0,5.4,91,0.00,,,-99.99,FreeWX 2.04,2013-02-28 15:42:00,
2013-02-28 10:47:00,32.4,30.0,29.65,NNE,14,2.0,7.4,91,0.00,,,-99.99,FreeWX 2.04,2013-02-28 15:47:00,
2013-02-28 10:52:00,32.4,30.0,29.65,NNE,27,2.0,5.4,91,0.00,,,-99.99,FreeWX 2.04,2013-02-28 15:52:00,
2013-02-28 10:57:00,32.4,30.0,29.65,North,2,2.0,5.4,91,0.00,,,-99.99,FreeWX 2.04,2013-02-28 15:57:00,
2013-02-28 11:02:00,32.5,30.2,29.65,NNE,12,2.0,7.8,91,0.00,,,-99.99,FreeWX 2.04,2013-02-28 16:02:00,
2013-02-28 11:07:00,32.5,30.2,29.68,NNE,30,2.0,6.3,91,0.00,,,-99.99,FreeWX 2.04,2013-02-28 16:07:00,
2013-02-28 11:12:00,32.9,30.6,29.68,NNE,25,2.0,5.8,91,0.00,,,-99.99,FreeWX 2.04,2013-02-28 16:12:00,
2013-02-28 11:17:00,33.3,31.3,29.68,NNE,26,1.0,6.7,92,0.04,,,-99.99,FreeWX 2.04,2013-02-28 16:17:00,
2013-02-28 11:22:00,32.9,30.9,29.68,NNE,23,2.0,11.0,92,0.04,,,-99.99,FreeWX 2.04,2013-02-28 16:22:00,
2013-02-28 11:27:00,32.9,30.9,29.68,NNE,28,2.0,7.4,92,0.04,,,-99.99,FreeWX 2.04,2013-02-28 16:27:00,
2013-02-28 11:33:00,33.4,31.5,29.68,NE,34,2.0,5.4,92,0.04,,,-99.99,FreeWX 2.04,2013-02-28 16:33:00,
2013-02-28 11:38:00,33.8,31.6,29.68,NE,38,2.0,7.4,92,0.04,,,-99.99,FreeWX 2.04,2013-02-28 16:38:00,
2013-02-28 11:43:00,33.8,31.6,29.68,NE,35,2.0,7.8,92,0.04,,,-99.99,FreeWX 2.04,2013-02-28 16:43:00,
2013-02-28 11:48:00,34.2,32.4,29.68,NE,43,2.0,5.8,93,0.04,,,-99.99,FreeWX 2.04,2013-02-28 16:48:00,
2013-02-28 11:53:00,34.3,32.5,29.68,NE,38,1.0,6.9,93,0.04,,,-99.99,FreeWX 2.04,2013-02-28 16:53:00,
2013-02-28 11:58:00,34.3,32.5,29.68,NNE,30,2.0,8.7,93,0.08,,,-99.99,FreeWX 2.04,2013-02-28 16:58:00,
2013-02-28 12:03:00,34.5,32.7,29.68,NE,39,1.0,6.3,93,0.08,,,-99.99,FreeWX 2.04,2013-02-28 17:03:00,
2013-02-28 12:08:00,34.3,32.5,29.68,NE,42,1.0,9.6,93,0.08,,,-99.99,FreeWX 2.04,2013-02-28 17:08:00,
2013-02-28 12:13:00,34.0,32.2,29.68,NNE,26,1.0,5.4,93,0.04,,,-99.99,FreeWX 2.04,2013-02-28 17:13:00,
2013-02-28 12:18:00,33.3,31.3,29.68,NNE,31,1.0,5.4,92,0.04,,,-99.99,FreeWX 2.04,2013-02-28 17:18:00,
2013-02-28 12:23:00,33.1,31.1,29.68,NE,51,2.0,6.9,92,0.04,,,-99.99,FreeWX 2.04,2013-02-28 17:23:00,
2013-02-28 12:28:00,33.8,31.6,29.68,ENE,61,2.0,6.9,92,0.04,,,-99.99,FreeWX 2.04,2013-02-28 17:28:00,
2013-02-28 12:33:00,34.0,31.8,29.68,ENE,58,2.0,9.2,92,0.04,,,-99.99,FreeWX 2.04,2013-02-28 17:33:00,
2013-02-28 12:38:00,33.4,31.5,29.68,NE,48,2.0,6.9,92,0.04,,,-99.99,FreeWX 2.04,2013-02-28 17:38:00,
2013-02-28 12:43:00,33.1,30.7,29.68,NE,55,3.0,7.8,91,0.04,,,-99.99,FreeWX 2.04,2013-02-28 17:43:00,
2013-02-28 12:48:00,33.3,30.9,29.68,NE,55,3.0,9.6,91,0.04,,,-99.99,FreeWX 2.04,2013-02-28 17:48:00,
2013-02-28 12:53:00,32.7,30.4,29.68,NE,50,3.0,8.3,91,0.04,,,-99.99,FreeWX 2.04,2013-02-28 17:53:00,
2013-02-28 12:58:00,32.7,30.2,29.68,NE,51,3.0,9.2,90,0.00,,,-99.99,FreeWX 2.04,2013-02-28 17:58:00,
2013-02-28 13:03:00,33.3,30.7,29.68,NE,56,3.0,7.4,90,0.00,,,-99.99,FreeWX 2.04,2013-02-28 18:03:00,
2013-02-28 13:08:00,33.8,31.1,29.71,NE,53,2.0,7.4,90,0.00,,,-99.99,FreeWX 2.04,2013-02-28 18:08:00,
2013-02-28 13:13:00,32.0,29.5,29.71,NE,51,3.0,10.5,90,0.00,,,-99.99,FreeWX 2.04,2013-02-28 18:13:00,
2013-02-28 13:18:00,32.2,29.3,29.71,NE,36,3.0,7.4,89,0.00,,,-99.99,FreeWX 2.04,2013-02-28 18:18:00,
2013-02-28 13:23:00,32.7,30.2,29.71,NE,37,2.0,6.3,90,0.00,,,-99.99,FreeWX 2.04,2013-02-28 18:23:00,
2013-02-28 13:28:00,32.2,29.3,29.71,ENE,58,2.0,7.8,89,0.00,,,-99.99,FreeWX 2.04,2013-02-28 18:28:00,
2013-02-28 13:33:00,32.2,29.3,29.71,NE,40,2.0,4.9,89,0.00,,,-99.99,FreeWX 2.04,2013-02-28 18:33:00,
2013-02-28 13:38:00,31.6,28.6,29.71,NE,38,2.0,9.2,88,0.00,,,-99.99,FreeWX 2.04,2013-02-28 18:38:00,
2013-02-28 13:43:00,32.4,29.5,29.71,NE,45,2.0,7.8,89,0.00,,,-99.99,FreeWX 2.04,2013-02-28 18:43:00,
2013-02-28 13:48:00,33.1,29.8,29.71,ENE,65,1.0,4.5,88,0.00,,,-99.99,FreeWX 2.04,2013-02-28 18:48:00,
2013-02-28 13:53:00,33.4,30.6,29.71,North,-999,0.0,4.5,89,0.00,,,-99.99,FreeWX 2.04,2013-02-28 18:53:00,
2013-02-28 13:58:00,32.7,29.8,29.71,NNE,18,1.0,7.8,89,0.00,,,-99.99,FreeWX 2.04,2013-02-28 18:58:00,
2013-02-28 14:03:00,33.1,30.2,29.71,NNE,33,2.0,6.9,89,0.00,,,-99.99,FreeWX 2.04,2013-02-28 19:03:00,
2013-02-28 14:08:00,33.4,30.6,29.71,NE,48,2.0,9.6,89,0.00,,,-99.99,FreeWX 2.04,2013-02-28 19:08:00,
2013-02-28 14:13:00,33.3,30.4,29.71,NE,49,2.0,7.4,89,0.00,,,-99.99,FreeWX 2.04,2013-02-28 19:13:00,
2013-02-28 14:18:00,33.8,31.1,29.71,ENE,63,2.0,7.8,90,0.00,,,-99.99,FreeWX 2.04,2013-02-28 19:18:00,
2013-02-28 14:28:00,33.4,30.7,29.71,NNE,12,1.0,7.4,90,0.00,,,-99.99,FreeWX 2.04,2013-02-28 19:28:00,
2013-02-28 14:33:00,33.1,30.2,29.71,NNE,27,2.0,7.4,89,0.00,,,-99.99,FreeWX 2.04,2013-02-28 19:33:00,
2013-02-28 14:38:00,32.9,30.0,29.71,NNE,24,2.0,6.9,89,0.00,,,-99.99,FreeWX 2.04,2013-02-28 19:38:00,
2013-02-28 14:43:00,32.7,29.8,29.71,NNE,16,2.0,6.9,89,0.00,,,-99.99,FreeWX 2.04,2013-02-28 19:43:00,
2013-02-28 14:48:00,32.5,29.7,29.74,NNE,19,2.0,8.3,89,0.00,,,-99.99,FreeWX 2.04,2013-02-28 19:48:00,
2013-02-28 14:53:00,33.1,29.8,29.74,NNE,22,2.0,7.4,88,0.00,,,-99.99,FreeWX 2.04,2013-02-28 19:53:00,
2013-02-28 14:58:00,33.1,29.8,29.74,NE,42,2.0,10.1,88,0.00,,,-99.99,FreeWX 2.04,2013-02-28 19:58:00,
2013-02-28 15:03:00,32.5,29.1,29.74,ENE,57,2.0,7.4,87,0.00,,,-99.99,FreeWX 2.04,2013-02-28 20:03:00,
2013-02-28 15:08:00,32.5,28.6,29.74,ENE,66,2.0,6.7,85,0.00,,,-99.99,FreeWX 2.04,2013-02-28 20:08:00,
2013-02-28 15:13:00,32.5,28.2,29.74,NE,46,2.0,5.4,84,0.00,,,-99.99,FreeWX 2.04,2013-02-28 20:13:00,
2013-02-28 15:18:00,32.0,27.1,29.74,NNE,28,2.0,6.9,82,0.00,,,-99.99,FreeWX 2.04,2013-02-28 20:18:00,
2013-02-28 15:23:00,32.2,26.8,29.74,NNE,28,1.0,7.8,80,0.00,,,-99.99,FreeWX 2.04,2013-02-28 20:23:00,
2013-02-28 15:28:00,32.4,26.6,29.74,North,-999,0.0,4.5,79,0.00,,,-99.99,FreeWX 2.04,2013-02-28 20:28:00,
2013-02-28 15:33:00,32.5,26.4,29.74,North,-999,0.0,4.5,78,0.00,,,-99.99,FreeWX 2.04,2013-02-28 20:33:00,
2013-02-28 15:38:00,32.4,26.1,29.74,North,-999,0.0,6.9,77,0.00,,,-99.99,FreeWX 2.04,2013-02-28 20:38:00,
2013-02-28 15:43:00,32.4,25.7,29.74,North,-999,0.0,3.1,76,0.00,,,-99.99,FreeWX 2.04,2013-02-28 20:43:00,
2013-02-28 15:48:00,32.0,24.6,29.74,North,8,1.0,8.3,74,0.00,,,-99.99,FreeWX 2.04,2013-02-28 20:48:00,
2013-02-28 15:53:00,31.5,23.5,29.74,NE,35,2.0,11.2,72,0.00,,,-99.99,FreeWX 2.04,2013-02-28 20:53:00,
2013-02-28 15:58:00,32.2,23.9,29.74,NNE,28,1.0,6.3,71,0.00,,,-99.99,FreeWX 2.04,2013-02-28 20:58:00,
2013-02-28 16:03:00,32.0,23.4,29.74,NE,34,1.0,5.4,70,0.00,,,-99.99,FreeWX 2.04,2013-02-28 21:03:00,
2013-02-28 16:08:00,31.5,21.4,29.74,NE,36,1.0,7.4,66,0.00,,,-99.99,FreeWX 2.04,2013-02-28 21:08:00,
2013-02-28 16:13:00,31.1,19.9,29.74,NE,36,1.0,4.9,63,0.00,,,-99.99,FreeWX 2.04,2013-02-28 21:13:00,
2013-02-28 16:18:00,30.9,19.8,29.76,NNE,29,1.0,7.4,63,0.00,,,-99.99,FreeWX 2.04,2013-02-28 21:18:00,
2013-02-28 16:23:00,30.7,18.9,29.76,NNE,16,2.0,5.8,61,0.00,,,-99.99,FreeWX 2.04,2013-02-28 21:23:00,
2013-02-28 16:28:00,30.9,18.7,29.76,North,359,1.0,5.4,60,0.00,,,-99.99,FreeWX 2.04,2013-02-28 21:28:00,
2013-02-28 16:33:00,30.6,17.6,29.76,North,359,1.0,6.9,58,0.00,,,-99.99,FreeWX 2.04,2013-02-28 21:33:00,
2013-02-28 16:38:00,30.4,16.5,29.76,North,353,1.0,5.4,56,0.00,,,-99.99,FreeWX 2.04,2013-02-28 21:38:00,
2013-02-28 16:43:00,30.2,16.3,29.76,NNE,12,2.0,10.1,56,0.00,,,-99.99,FreeWX 2.04,2013-02-28 21:43:00,
2013-02-28 16:48:00,30.0,15.8,29.76,NNE,19,2.0,6.7,55,0.00,,,-99.99,FreeWX 2.04,2013-02-28 21:48:00,
2013-02-28 16:53:00,29.8,15.6,29.76,North,352,1.0,7.8,55,0.00,,,-99.99,FreeWX 2.04,2013-02-28 21:53:00,
2013-02-28 16:58:00,29.7,15.4,29.76,North,-999,0.0,5.4,55,0.00,,,-99.99,FreeWX 2.04,2013-02-28 21:58:00,
2013-02-28 17:03:00,29.5,14.9,29.76,NNE,29,1.0,8.7,54,0.00,,,-99.99,FreeWX 2.04,2013-02-28 22:03:00,
2013-02-28 17:08:00,29.3,14.4,29.76,North,6,1.0,5.8,53,0.00,,,-99.99,FreeWX 2.04,2013-02-28 22:08:00,
2013-02-28 17:13:00,29.3,14.7,29.76,North,-999,0.0,3.1,54,0.00,,,-99.99,FreeWX 2.04,2013-02-28 22:13:00,
2013-02-28 17:18:00,29.1,15.1,29.79,North,-999,0.0,6.9,55,0.00,,,-99.99,FreeWX 2.04,2013-02-28 22:18:00,
2013-02-28 17:23:00,29.1,15.1,29.79,ENE,59,1.0,7.4,55,0.00,,,-99.99,FreeWX 2.04,2013-02-28 22:23:00,
2013-02-28 17:28:00,29.1,14.5,29.79,North,-999,0.0,7.4,54,0.00,,,-99.99,FreeWX 2.04,2013-02-28 22:28:00,
2013-02-28 17:33:00,28.9,14.4,29.79,North,11,1.0,6.3,54,0.00,,,-99.99,FreeWX 2.04,2013-02-28 22:33:00,
2013-02-28 17:38:00,28.9,14.4,29.79,NNE,27,1.0,8.3,54,0.00,,,-99.99,FreeWX 2.04,2013-02-28 22:38:00,
2013-02-28 17:43:00,28.8,13.8,29.79,NNE,25,1.0,5.8,53,0.00,,,-99.99,FreeWX 2.04,2013-02-28 22:43:00,
2013-02-28 17:48:00,28.8,13.8,29.79,NNE,12,1.0,4.5,53,0.00,,,-99.99,FreeWX 2.04,2013-02-28 22:48:00,
2013-02-28 17:53:00,28.8,13.8,29.79,North,-999,0.0,2.7,53,0.00,,,-99.99,FreeWX 2.04,2013-02-28 22:53:00,
2013-02-28 17:58:00,28.8,13.8,29.79,North,-999,0.0,6.9,53,0.00,,,-99.99,FreeWX 2.04,2013-02-28 22:58:00,
2013-02-28 18:03:00,28.8,13.8,29.79,NNE,12,1.0,4.9,53,0.00,,,-99.99,FreeWX 2.04,2013-02-28 23:03:00,
2013-02-28 18:08:00,28.8,13.8,29.79,North,-999,0.0,4.5,53,0.00,,,-99.99,FreeWX 2.04,2013-02-28 23:08:00,
2013-02-28 18:13:00,28.6,13.6,29.79,North,-999,0.0,3.6,53,0.00,,,-99.99,FreeWX 2.04,2013-02-28 23:13:00,
2013-02-28 18:18:00,28.4,13.5,29.79,North,-999,0.0,4.5,53,0.00,,,-99.99,FreeWX 2.04,2013-02-28 23:18:00,
2013-02-28 18:23:00,28.4,13.5,29.79,North,-999,0.0,8.3,53,0.00,,,-99.99,FreeWX 2.04,2013-02-28 23:23:00,
2013-02-28 18:28:00,28.4,13.5,29.79,North,-999,0.0,4.5,53,0.00,,,-99.99,FreeWX 2.04,2013-02-28 23:28:00,
2013-02-28 18:33:00,28.2,13.3,29.82,North,-999,0.0,5.4,53,0.00,,,-99.99,FreeWX 2.04,2013-02-28 23:33:00,
2013-02-28 18:38:00,28.2,13.3,29.82,North,-999,0.0,4.9,53,0.00,,,-99.99,FreeWX 2.04,2013-02-28 23:38:00,
2013-02-28 18:43:00,28.2,13.3,29.82,North,-999,0.0,5.8,53,0.00,,,-99.99,FreeWX 2.04,2013-02-28 23:43:00,
2013-02-28 18:48:00,28.0,12.7,29.82,North,-999,0.0,4.5,52,0.00,,,-99.99,FreeWX 2.04,2013-02-28 23:48:00,
2013-02-28 18:53:00,28.0,13.1,29.82,North,-999,0.0,3.1,53,0.00,,,-99.99,FreeWX 2.04,2013-02-28 23:53:00,
2013-02-28 18:58:00,28.0,12.7,29.82,North,-999,0.0,4.5,52,0.00,,,-99.99,FreeWX 2.04,2013-02-28 23:58:00,
2013-02-28 19:03:00,28.0,12.7,29.82,North,-999,0.0,4.0,52,0.00,,,-99.99,FreeWX 2.04,2013-03-01 00:03:00,
2013-02-28 19:08:00,28.0,12.7,29.82,North,-999,0.0,4.0,52,0.00,,,-99.99,FreeWX 2.04,2013-03-01 00:08:00,
2013-02-28 19:13:00,27.9,12.6,29.82,North,-999,0.0,4.9,52,0.00,,,-99.99,FreeWX 2.04,2013-03-01 00:13:00,
2013-02-28 19:18:00,27.9,12.6,29.82,NNE,19,1.0,5.4,52,0.00,,,-99.99,FreeWX 2.04,2013-03-01 00:18:00,
2013-02-28 19:23:00,27.9,12.6,29.82,NNE,14,1.0,6.3,52,0.00,,,-99.99,FreeWX 2.04,2013-03-01 00:23:00,
2013-02-28 19:28:00,27.9,12.6,29.82,NNE,17,1.0,4.5,52,0.00,,,-99.99,FreeWX 2.04,2013-03-01 00:28:00,
2013-02-28 19:33:00,27.9,12.6,29.85,NNE,26,1.0,6.3,52,0.00,,,-99.99,FreeWX 2.04,2013-03-01 00:33:00,
2013-02-28 19:38:00,27.9,12.6,29.85,North,-999,0.0,4.0,52,0.00,,,-99.99,FreeWX 2.04,2013-03-01 00:38:00,
2013-02-28 19:43:00,27.9,12.6,29.85,North,-999,0.0,4.9,52,0.00,,,-99.99,FreeWX 2.04,2013-03-01 00:43:00,
2013-02-28 19:48:00,27.9,12.6,29.85,North,-999,0.0,3.6,52,0.00,,,-99.99,FreeWX 2.04,2013-03-01 00:48:00,
2013-02-28 19:53:00,27.9,12.6,29.85,North,-999,0.0,7.4,52,0.00,,,-99.99,FreeWX 2.04,2013-03-01 00:53:00,
2013-02-28 19:58:00,27.9,12.6,29.85,North,-999,0.0,5.8,52,0.00,,,-99.99,FreeWX 2.04,2013-03-01 00:58:00,
2013-02-28 20:03:00,27.9,12.6,29.85,North,-999,0.0,4.0,52,0.00,,,-99.99,FreeWX 2.04,2013-03-01 01:03:00,
2013-02-28 20:08:00,27.9,12.6,29.85,NE,48,1.0,6.3,52,0.00,,,-99.99,FreeWX 2.04,2013-03-01 01:08:00,
2013-02-28 20:13:00,27.9,12.0,29.85,NNE,31,1.0,8.3,51,0.00,,,-99.99,FreeWX 2.04,2013-03-01 01:13:00,
2013-02-28 20:18:00,27.9,12.0,29.85,NE,43,1.0,3.6,51,0.00,,,-99.99,FreeWX 2.04,2013-03-01 01:18:00,
2013-02-28 20:23:00,27.9,11.7,29.85,NE,40,1.0,6.7,50,0.00,,,-99.99,FreeWX 2.04,2013-03-01 01:23:00,
2013-02-28 20:28:00,28.0,11.8,29.85,NNE,28,1.0,9.6,50,0.00,,,-99.99,FreeWX 2.04,2013-03-01 01:28:00,
2013-02-28 20:33:00,28.0,11.3,29.85,NE,43,1.0,9.6,49,0.00,,,-99.99,FreeWX 2.04,2013-03-01 01:33:00,
2013-02-28 20:38:00,28.0,10.9,29.85,NE,49,1.0,8.7,48,0.00,,,-99.99,FreeWX 2.04,2013-03-01 01:38:00,
2013-02-28 20:43:00,28.0,10.9,29.85,NE,38,1.0,4.5,48,0.00,,,-99.99,FreeWX 2.04,2013-03-01 01:43:00,
2013-02-28 20:48:00,28.0,10.9,29.85,NE,43,1.0,6.3,48,0.00,,,-99.99,FreeWX 2.04,2013-03-01 01:48:00,
2013-02-28 20:53:00,28.0,10.9,29.85,NE,44,1.0,5.4,48,0.00,,,-99.99,FreeWX 2.04,2013-03-01 01:53:00,
2013-02-28 20:58:00,28.0,10.4,29.85,NNE,29,1.0,4.9,47,0.00,,,-99.99,FreeWX 2.04,2013-03-01 01:58:00,
2013-02-28 21:03:00,28.0,10.4,29.85,NNE,29,1.0,6.7,47,0.00,,,-99.99,FreeWX 2.04,2013-03-01 02:03:00,
2013-02-28 21:08:00,27.9,9.9,29.85,NNE,17,1.0,5.4,46,0.00,,,-99.99,FreeWX 2.04,2013-03-01 02:08:00,